Weather in Tangi

Russia / Sakhalin District     51°14′24″N   142°11′20″E
temp.,
°C
wind,
m/s
gust,
m/s
humid.,
%
clouds,
%
prec.,
mm/h
press.,
hPa
HPBL,
m
26 february, fri
fri2623:00−15n2596100 0.5 1018253
02:00−18n2496100 0.0 101997
05:00−19nne2494100 0.0 1019126
08:00−20n2592100 0.0 1020119
11:00−17n3788100 0.0 1020408
14:00−14nnw4691100 0.0 1021524
17:00−15nnw4890100 0.1 1021565
20:00−18n21092100 0.0 1023396
27 february, sat
sat2723:00−19n2890100 0.0 1025270
02:00−21n2292100 0.0 102628
05:00−23nne129579 0.0 102722
08:00−24ene019960 0.0 102821
11:00−17sw119468 0.0 1028210
14:00−13wsw2290100 0.0 1028375
17:00−13ssw2392100 0.0 1026279
20:00−18s229429 0.0 102621
28 february, sun
sun2823:00−18se238621 0.0 102422
02:00−15sse388351 0.0 1021174
05:00−13se3128775 0.0 1017391
08:00−11se3795100 0.7 1013240
11:00−6sw3896100 3.8 1011520
14:00−5w578792 0.6 1009724
17:00−6wnw488671 0.7 1009686
20:00−12nnw238934 0.0 101241
1 march, mon
mon123:00−14ene019663 0.1 101320
02:00−14w0196100 0.1 101421
05:00−15wnw4108897 0.2 1016345
08:00−21nw239718 0.0 101735
11:00−16nw6118110 0.0 1018876
14:00−15wnw8107968 0.1 10181101
17:00−15wnw7108275 0.1 10201160
20:00−16w4989100 0.1 1023515
2 march, tue
tue223:00−16wnw3696100 0.5 1025359
02:00−19wsw498683 0.1 1025321
05:00−22sw349442 0.1 102588
08:00−21wsw379162 0.1 1026240
11:00−19sw239281 0.1 1026470
14:00−18sw457466 0.1 1025893
17:00−18w348442 0.1 1024952
20:00−21nnw2299100 0.1 102464